| time (UTC) | temp C | wind direction | speed KPH | gust KPH | rain 1hr cm | rain 24hr cm | rain mn cm | humidity % | barometer mb |
| 20260504110529 | 1 | 0 | 0.0 | 0.0 | 0.00 | 0.00 | 0.00 | 87 | 1011.9 |
| 20260504100528 | 1 | 0 | 0.0 | 0.0 | 0.00 | 0.00 | 0.00 | 86 | 1011.9 |
| 20260504081541 | 1 | 0 | 0.0 | 0.0 | 0.00 | 0.00 | 0.00 | 85 | 1011.3 |
| 20260504081032 | 1 | 0 | 0.0 | 0.0 | 0.00 | 0.00 | 0.00 | 85 | 1011.4 |
| 20260504080529 | 1 | 0 | 0.0 | 0.0 | 0.00 | 0.00 | 0.00 | 85 | 1011.4 |
| 20260504080217 | 1 | 0 | 0.0 | 0.0 | 0.00 | 0.00 | 0.00 | 85 | 1011.5 |
| 20260504050528 | 3 | 0 | 0.0 | 0.0 | 0.00 | 0.00 | 0.00 | 80 | 1011.1 |
| 20260504050117 | 3 | 0 | 0.0 | 1.6 | 0.00 | 0.00 | 0.00 | 79 | 1011.0 |
| 20260504045528 | 3 | 0 | 0.0 | 1.6 | 0.00 | 0.00 | 0.00 | 79 | 1011.1 |
| 20260504045028 | 4 | 0 | 0.0 | 0.0 | 0.00 | 0.00 | 0.00 | 79 | 1011.0 |
| 20260504044543 | 4 | 0 | 0.0 | 0.0 | 0.00 | 0.00 | 0.00 | 79 | 1011.1 |
| 20260504044028 | 4 | 0 | 0.0 | 0.0 | 0.00 | 0.00 | 0.00 | 79 | 1011.2 |
| 20260504043535 | 4 | 0 | 0.0 | 0.0 | 0.00 | 0.00 | 0.00 | 80 | 1011.1 |
| 20260504043042 | 4 | 0 | 0.0 | 1.6 | 0.00 | 0.00 | 0.00 | 80 | 1011.0 |
| 20260504042528 | 4 | 0 | 0.0 | 1.6 | 0.00 | 0.00 | 0.00 | 80 | 1011.2 |
| 20260504042028 | 4 | 0 | 0.0 | 1.6 | 0.00 | 0.00 | 0.00 | 80 | 1011.1 |
| 20260504041541 | 4 | 0 | 0.0 | 0.0 | 0.00 | 0.00 | 0.00 | 79 | 1011.2 |
| 20260504041028 | 4 | 0 | 0.0 | 0.0 | 0.00 | 0.00 | 0.00 | 79 | 1011.2 |
| 20260504040529 | 4 | 0 | 0.0 | 0.0 | 0.00 | 0.00 | 0.00 | 78 | 1011.2 |
| 20260504040043 | 4 | 0 | 0.0 | 0.0 | 0.00 | 0.00 | 0.00 | 78 | 1011.1 |
| 20260504035532 | 4 | 0 | 0.0 | 0.0 | 0.00 | 0.00 | 0.00 | 77 | 1011.2 |
| 20260504035029 | 4 | 0 | 0.0 | 0.0 | 0.00 | 0.00 | 0.00 | 77 | 1011.1 |
| 20260504034552 | 4 | 0 | 0.0 | 0.0 | 0.00 | 0.00 | 0.00 | 77 | 1011.2 |
| 20260504034028 | 5 | 0 | 0.0 | 0.0 | 0.00 | 0.00 | 0.00 | 76 | 1011.2 |
| 20260504033528 | 5 | 0 | 0.0 | 0.0 | 0.00 | 0.00 | 0.00 | 76 | 1011.2 |
| 20260504033055 | 5 | 0 | 0.0 | 0.0 | 0.00 | 0.00 | 0.00 | 76 | 1011.1 |
| 20260504032528 | 5 | 0 | 0.0 | 0.0 | 0.00 | 0.00 | 0.00 | 75 | 1011.1 |
| 20260504032028 | 5 | 0 | 0.0 | 0.0 | 0.00 | 0.00 | 0.00 | 75 | 1011.1 |
| 20260504031559 | 5 | 0 | 0.0 | 0.0 | 0.00 | 0.00 | 0.00 | 74 | 1011.0 |
| 20260504031028 | 5 | 0 | 0.0 | 0.0 | 0.00 | 0.00 | 0.00 | 74 | 1011.0 |
| 20260504030528 | 5 | 0 | 0.0 | 0.0 | 0.00 | 0.00 | 0.00 | 74 | 1010.9 |
| 20260504030056 | 5 | 0 | 0.0 | 0.0 | 0.00 | 0.00 | 0.00 | 73 | 1010.9 |
| 20260504025528 | 5 | 0 | 0.0 | 0.0 | 0.00 | 0.00 | 0.00 | 72 | 1010.9 |
| 20260504025029 | 6 | 0 | 0.0 | 0.0 | 0.00 | 0.00 | 0.00 | 71 | 1010.9 |
| 20260504024543 | 6 | 0 | 0.0 | 0.0 | 0.00 | 0.00 | 0.00 | 71 | 1011.0 |
| 20260504024028 | 6 | 0 | 0.0 | 0.0 | 0.00 | 0.00 | 0.00 | 71 | 1011.0 |
| 20260504023528 | 6 | 0 | 0.0 | 0.0 | 0.00 | 0.00 | 0.00 | 69 | 1011.0 |
| 20260504023044 | 6 | 0 | 0.0 | 0.0 | 0.00 | 0.00 | 0.00 | 69 | 1011.0 |
| 20260504022530 | 6 | 0 | 0.0 | 3.2 | 0.00 | 0.00 | 0.00 | 68 | 1010.9 |
| 20260504022027 | 6 | 0 | 0.0 | 3.2 | 0.00 | 0.00 | 0.00 | 67 | 1010.9 |
| 20260504021540 | 7 | 0 | 0.0 | 1.6 | 0.00 | 0.00 | 0.00 | 66 | 1010.9 |
| 20260504021027 | 7 | 0 | 0.0 | 0.0 | 0.00 | 0.00 | 0.00 | 66 | 1011.0 |
| 20260504020527 | 7 | 0 | 0.0 | 0.0 | 0.00 | 0.00 | 0.00 | 66 | 1010.9 |
| 20260504020041 | 7 | 0 | 0.0 | 0.0 | 0.00 | 0.00 | 0.00 | 66 | 1010.9 |
| 20260504015528 | 7 | 0 | 0.0 | 0.0 | 0.00 | 0.00 | 0.00 | 66 | 1010.9 |
| 20260504015030 | 8 | 0 | 0.0 | 0.0 | 0.00 | 0.00 | 0.00 | 66 | 1010.9 |
| 20260504014542 | 8 | 0 | 0.0 | 0.0 | 0.00 | 0.00 | 0.00 | 66 | 1010.8 |
| 20260504014032 | 8 | 0 | 0.0 | 0.0 | 0.00 | 0.00 | 0.00 | 66 | 1010.8 |
| 20260504013526 | 8 | 0 | 0.0 | 0.0 | 0.00 | 0.00 | 0.00 | 67 | 1010.9 |
| 20260504013041 | 8 | 0 | 0.0 | 0.0 | 0.00 | 0.00 | 0.00 | 67 | 1010.9 |
| 20260504012528 | 9 | 0 | 0.0 | 0.0 | 0.00 | 0.00 | 0.00 | 66 | 1010.8 |
| 20260504012027 | 9 | 0 | 0.0 | 0.0 | 0.00 | 0.00 | 0.00 | 61 | 1010.7 |
| 20260504011542 | 9 | 0 | 0.0 | 0.0 | 0.00 | 0.00 | 0.00 | 56 | 1010.8 |
| 20260504011032 | 10 | 0 | 0.0 | 0.0 | 0.00 | 0.00 | 0.00 | 53 | 1010.7 |
| 20260504010527 | 10 | 0 | 0.0 | 0.0 | 0.00 | 0.00 | 0.00 | 53 | 1010.7 |
| 20260504010046 | 10 | 0 | 0.0 | 0.0 | 0.00 | 0.00 | 0.00 | 54 | 1010.5 |
| 20260504005528 | 10 | 0 | 0.0 | 0.0 | 0.00 | 0.00 | 0.00 | 57 | 1010.5 |
| 20260504005028 | 10 | 0 | 0.0 | 0.0 | 0.00 | 0.00 | 0.00 | 54 | 1010.4 |
| 20260504004541 | 10 | 0 | 0.0 | 0.0 | 0.00 | 0.00 | 0.00 | 53 | 1010.4 |
| 20260504004027 | 11 | 0 | 0.0 | 0.0 | 0.00 | 0.00 | 0.00 | 52 | 1010.2 |
| 20260504003527 | 11 | 0 | 0.0 | 0.0 | 0.00 | 0.00 | 0.00 | 50 | 1010.2 |
| 20260504003043 | 11 | 0 | 0.0 | 0.0 | 0.00 | 0.00 | 0.00 | 49 | 1010.2 |
| 20260504002531 | 11 | 0 | 0.0 | 0.0 | 0.00 | 0.00 | 0.00 | 45 | 1010.0 |
| 20260504002027 | 11 | 0 | 0.0 | 6.4 | 0.00 | 0.00 | 0.00 | 45 | 1009.9 |
| 20260504001537 | 12 | 0 | 0.0 | 6.4 | 0.00 | 0.00 | 0.00 | 43 | 1009.8 |
| 20260504001030 | 12 | 218 | 0.0 | 8.0 | 0.00 | 0.00 | 0.00 | 44 | 1009.8 |
| 20260504000528 | 12 | 248 | 0.0 | 8.0 | 0.00 | 0.00 | 0.00 | 44 | 1009.7 |
| 20260504000111 | 12 | 276 | 0.0 | 0.0 | 0.00 | 0.00 | 0.00 | 43 | 1009.6 |
| 20260503235528 | 12 | 0 | 0.0 | 9.7 | 0.00 | 0.00 | 0.00 | 42 | 1009.5 |
| 20260503235028 | 12 | 0 | 0.0 | 9.7 | 0.00 | 0.00 | 0.00 | 39 | 1009.5 |
| 20260503234539 | 13 | 284 | 1.6 | 9.7 | 0.00 | 0.00 | 0.00 | 38 | 1009.4 |
| 20260503234028 | 13 | 0 | 1.6 | 4.8 | 0.00 | 0.00 | 0.00 | 36 | 1009.4 |
| 20260503233530 | 13 | 0 | 0.0 | 11.3 | 0.00 | 0.00 | 0.00 | 38 | 1009.3 |
| 20260503233041 | 13 | 0 | 3.2 | 11.3 | 0.00 | 0.00 | 0.00 | 35 | 1009.3 |
| 20260503232530 | 13 | 292 | 0.0 | 4.8 | 0.00 | 0.00 | 0.00 | 44 | 1009.3 |
| 20260503232027 | 13 | 0 | 0.0 | 12.9 | 0.00 | 0.00 | 0.00 | 32 | 1009.3 |
| 20260503231541 | 13 | 292 | 1.6 | 12.9 | 0.00 | 0.00 | 0.00 | 33 | 1009.1 |
| 20260503231031 | 13 | 306 | 4.8 | 14.5 | 0.00 | 0.00 | 0.00 | 32 | 1009.1 |
| 20260503230528 | 13 | 0 | 3.2 | 14.5 | 0.00 | 0.00 | 0.00 | 31 | 1009.0 |
| 20260503230044 | 13 | 315 | 1.6 | 9.7 | 0.00 | 0.00 | 0.00 | 31 | 1009.0 |
| 20260503225527 | 13 | 291 | 1.6 | 6.4 | 0.00 | 0.00 | 0.00 | 32 | 1009.0 |
| 20260503225029 | 13 | 0 | 1.6 | 8.0 | 0.00 | 0.00 | 0.00 | 30 | 1008.8 |
| 20260503224542 | 14 | 0 | 3.2 | 14.5 | 0.00 | 0.00 | 0.00 | 30 | 1008.8 |
| 20260503224031 | 14 | 313 | 1.6 | 16.1 | 0.00 | 0.00 | 0.00 | 32 | 1008.8 |
| 20260503223528 | 14 | 333 | 3.2 | 16.1 | 0.00 | 0.00 | 0.00 | 29 | 1008.8 |
| 20260503223039 | 14 | 303 | 1.6 | 16.1 | 0.00 | 0.00 | 0.00 | 31 | 1008.7 |
| 20260503222527 | 15 | 331 | 3.2 | 12.9 | 0.00 | 0.00 | 0.00 | 29 | 1008.5 |
| 20260503222028 | 15 | 0 | 3.2 | 14.5 | 0.00 | 0.00 | 0.00 | 29 | 1008.5 |
| 20260503221541 | 15 | 269 | 3.2 | 19.3 | 0.00 | 0.00 | 0.00 | 29 | 1008.6 |
| 20260503221027 | 15 | 304 | 6.4 | 22.5 | 0.00 | 0.00 | 0.00 | 28 | 1008.7 |
| 20260503220528 | 15 | 258 | 3.2 | 22.5 | 0.00 | 0.00 | 0.00 | 30 | 1008.8 |
| 20260503220049 | 15 | 325 | 6.4 | 20.9 | 0.00 | 0.00 | 0.00 | 29 | 1009.0 |
| 20260503215530 | 15 | 0 | 1.6 | 20.9 | 0.00 | 0.00 | 0.00 | 30 | 1008.8 |
| 20260503215031 | 15 | 342 | 4.8 | 17.7 | 0.00 | 0.00 | 0.00 | 30 | 1008.8 |
| 20260503214541 | 14 | 15 | 6.4 | 17.7 | 0.00 | 0.00 | 0.00 | 31 | 1008.9 |
| 20260503214029 | 14 | 284 | 3.2 | 20.9 | 0.00 | 0.00 | 0.00 | 30 | 1008.8 |
| 20260503213528 | 14 | 273 | 6.4 | 20.9 | 0.00 | 0.00 | 0.00 | 29 | 1008.8 |
| 20260503213038 | 14 | 30 | 6.4 | 20.9 | 0.00 | 0.00 | 0.00 | 32 | 1008.8 |
| 20260503212528 | 14 | 11 | 6.4 | 19.3 | 0.00 | 0.00 | 0.00 | 32 | 1008.7 |
| 20260503212027 | 14 | 0 | 4.8 | 16.1 | 0.00 | 0.00 | 0.00 | 31 | 1008.7 |
| 20260503211540 | 14 | 51 | 3.2 | 20.9 | 0.00 | 0.00 | 0.00 | 31 | 1008.7 |
| 20260503211027 | 14 | 15 | 6.4 | 20.9 | 0.00 | 0.00 | 0.00 | 30 | 1008.8 |
| 20260503210528 | 14 | 314 | 6.4 | 19.3 | 0.00 | 0.00 | 0.00 | 31 | 1008.8 |
| 20260503210037 | 14 | 105 | 4.8 | 19.3 | 0.00 | 0.00 | 0.00 | 31 | 1008.8 |
| 20260503205528 | 14 | 285 | 9.7 | 19.3 | 0.00 | 0.00 | 0.00 | 31 | 1008.8 |
| 20260503205027 | 14 | 242 | 4.8 | 19.3 | 0.00 | 0.00 | 0.00 | 33 | 1008.7 |
| 20260503204544 | 14 | 135 | 3.2 | 20.9 | 0.00 | 0.00 | 0.00 | 32 | 1008.7 |
| 20260503204028 | 14 | 244 | 6.4 | 20.9 | 0.00 | 0.00 | 0.00 | 32 | 1008.7 |
| 20260503203532 | 14 | 309 | 3.2 | 19.3 | 0.00 | 0.00 | 0.00 | 34 | 1009.0 |
| 20260503203042 | 14 | 332 | 6.4 | 24.1 | 0.00 | 0.00 | 0.00 | 32 | 1008.9 |
| 20260503202528 | 14 | 227 | 3.2 | 24.1 | 0.00 | 0.00 | 0.00 | 32 | 1008.9 |
| 20260503202031 | 14 | 119 | 9.7 | 24.1 | 0.00 | 0.00 | 0.00 | 32 | 1009.1 |
| 20260503201538 | 13 | 345 | 3.2 | 17.7 | 0.00 | 0.00 | 0.00 | 33 | 1009.1 |
| 20260503201027 | 13 | 336 | 3.2 | 19.3 | 0.00 | 0.00 | 0.00 | 34 | 1009.1 |
| 20260503200529 | 13 | 327 | 9.7 | 19.3 | 0.00 | 0.00 | 0.00 | 33 | 1009.3 |
| 20260503200038 | 13 | 61 | 6.4 | 20.9 | 0.00 | 0.00 | 0.00 | 37 | 1009.3 |
| 20260503195527 | 13 | 77 | 6.4 | 20.9 | 0.00 | 0.00 | 0.00 | 36 | 1009.3 |
| 20260503195028 | 13 | 67 | 8.0 | 17.7 | 0.00 | 0.00 | 0.00 | 36 | 1009.3 |
| 20260503194547 | 13 | 323 | 8.0 | 17.7 | 0.00 | 0.00 | 0.00 | 35 | 1009.3 |
| 20260503194029 | 13 | 55 | 6.4 | 16.1 | 0.00 | 0.00 | 0.00 | 36 | 1009.5 |
| 20260503193530 | 13 | 22 | 4.8 | 16.1 | 0.00 | 0.00 | 0.00 | 37 | 1009.5 |
| 20260503193044 | 13 | 53 | 4.8 | 19.3 | 0.00 | 0.00 | 0.00 | 39 | 1009.6 |
| 20260503192527 | 13 | 46 | 6.4 | 19.3 | 0.00 | 0.00 | 0.00 | 40 | 1009.6 |
| 20260503192032 | 13 | 121 | 6.4 | 19.3 | 0.00 | 0.00 | 0.00 | 38 | 1009.6 |
| 20260503191540 | 13 | 360 | 4.8 | 12.9 | 0.00 | 0.00 | 0.00 | 39 | 1009.7 |
| 20260503191028 | 13 | 329 | 3.2 | 12.9 | 0.00 | 0.00 | 0.00 | 37 | 1009.8 |
| 20260503190528 | 12 | 25 | 4.8 | 27.4 | 0.00 | 0.00 | 0.00 | 40 | 1009.9 |
| 20260503190041 | 12 | 296 | 9.7 | 27.4 | 0.00 | 0.00 | 0.00 | 40 | 1009.8 |
| 20260503185527 | 12 | 315 | 8.0 | 27.4 | 0.00 | 0.00 | 0.00 | 40 | 1009.8 |
| 20260503185029 | 12 | 42 | 6.4 | 25.7 | 0.00 | 0.00 | 0.00 | 38 | 1009.9 |
| 20260503184557 | 12 | 89 | 6.4 | 17.7 | 0.00 | 0.00 | 0.00 | 41 | 1009.9 |
| 20260503184027 | 11 | 286 | 6.4 | 17.7 | 0.00 | 0.00 | 0.00 | 41 | 1010.0 |
| 20260503183527 | 11 | 40 | 4.8 | 22.5 | 0.00 | 0.00 | 0.00 | 42 | 1010.1 |
| 20260503183049 | 11 | 119 | 8.0 | 25.7 | 0.00 | 0.00 | 0.00 | 42 | 1010.1 |
| 20260503182528 | 11 | 316 | 9.7 | 29.0 | 0.00 | 0.00 | 0.00 | 40 | 1010.4 |
| 20260503182028 | 11 | 341 | 6.4 | 29.0 | 0.00 | 0.00 | 0.00 | 41 | 1010.3 |
| 20260503181546 | 11 | 103 | 12.9 | 29.0 | 0.00 | 0.00 | 0.00 | 39 | 1010.2 |
| 20260503181031 | 11 | 259 | 4.8 | 17.7 | 0.00 | 0.00 | 0.00 | 45 | 1010.3 |
| 20260503180528 | 11 | 57 | 8.0 | 22.5 | 0.00 | 0.00 | 0.00 | 42 | 1010.4 |
| 20260503180040 | 11 | 306 | 6.4 | 22.5 | 0.00 | 0.00 | 0.00 | 40 | 1010.2 |
| 20260503175527 | 11 | 44 | 3.2 | 24.1 | 0.00 | 0.00 | 0.00 | 41 | 1010.2 |
| 20260503175027 | 11 | 360 | 12.9 | 24.1 | 0.00 | 0.00 | 0.00 | 38 | 1010.4 |
| 20260503174537 | 11 | 18 | 6.4 | 20.9 | 0.00 | 0.00 | 0.00 | 42 | 1010.2 |
| 20260503174030 | 11 | 64 | 9.7 | 20.9 | 0.00 | 0.00 | 0.00 | 39 | 1010.5 |
| 20260503173527 | 11 | 327 | 4.8 | 19.3 | 0.00 | 0.00 | 0.00 | 46 | 1010.3 |
| 20260503173044 | 11 | 157 | 4.8 | 24.1 | 0.00 | 0.00 | 0.00 | 43 | 1010.3 |
| 20260503172527 | 11 | 346 | 6.4 | 24.1 | 0.00 | 0.00 | 0.00 | 42 | 1010.4 |
| 20260503172027 | 11 | 83 | 4.8 | 19.3 | 0.00 | 0.00 | 0.00 | 41 | 1010.3 |
| 20260503171611 | 12 | 337 | 6.4 | 19.3 | 0.00 | 0.00 | 0.00 | 41 | 1010.4 |
| 20260503171028 | 12 | 334 | 8.0 | 19.3 | 0.00 | 0.00 | 0.00 | 41 | 1010.3 |
| 20260503170528 | 12 | 132 | 1.6 | 19.3 | 0.00 | 0.00 | 0.00 | 43 | 1010.2 |
| 20260503150527 | 10 | 57 | 4.8 | 17.7 | 0.00 | 0.03 | 0.00 | 45 | 1010.4 |
| 20260503131026 | 8 | 360 | 4.8 | 12.9 | 0.00 | 0.10 | 0.00 | 62 | 1010.9 |
| 20260503130527 | 8 | 123 | 4.8 | 12.9 | 0.00 | 0.10 | 0.00 | 61 | 1010.8 |